EW8300 Weather Reports


time (UTC)temp
F
wind
direction
speed
knots
gust
knots
rain 1hr
in
rain 24hr
in
rain mn
in
humidity
%
barometer
mb
20260902211653 98 182 0.0 0.9 0.00 0.00 0.00 49 1013.4
20260902210053 97 135 0.0 2.6 0.00 0.00 0.00 49 1013.5
20260902204609 97 62 0.0 3.5 0.00 0.00 0.00 53 1013.5
20260902203055 96 253 0.0 3.5 0.00 0.00 0.00 51 1013.7
20260902201648 94 97 0.0 3.5 0.00 0.00 0.00 54 1013.8
20260902200050 96 156 0.0 0.9 0.00 0.00 0.00 51 1013.9
20260902194556 96 143 0.0 0.9 0.00 0.00 0.00 51 1014.0
20260902193047 96 247 0.0 0.9 0.00 0.00 0.00 50 1014.2
20260902191645 96 70 0.0 3.5 0.00 0.00 0.00 50 1014.4
20260902190044 96 201 0.0 2.6 0.00 0.00 0.00 50 1014.6
20260902184544 94 179 0.0 0.0 0.00 0.00 0.00 51 1014.6
20260902183102 95 278 0.0 3.5 0.00 0.00 0.00 51 1014.7
20260902181503 95 95 0.0 1.7 0.00 0.00 0.00 53 1014.9
20260902180004 95 133 0.0 0.0 0.00 0.00 0.00 52 1015.0
20260902174502 95 185 0.0 3.5 0.00 0.00 0.00 52 1015.0
20260902173102 95 145 0.0 0.0 0.00 0.00 0.00 52 1015.3
20260902171658 95 191 0.0 0.0 0.00 0.00 0.00 52 1015.4
20260902170054 94 252 0.0 4.3 0.00 0.00 0.00 55 1015.4
20260902164603 93 220 0.0 2.6 0.00 0.00 0.00 55 1015.5
20260902163049 93 231 0.0 6.1 0.00 0.00 0.00 56 1015.6
20260902161647 93 193 0.0 0.0 0.00 0.00 0.00 57 1015.8
20260902160105 94 170 0.0 0.0 0.00 0.00 0.00 58 1015.8
20260902154557 93 110 0.0 0.0 0.00 0.00 0.00 60 1015.8
20260902153048 92 156 0.0 0.0 0.00 0.00 0.00 61 1015.9
20260902151644 91 201 0.0 0.0 0.00 0.00 0.00 63 1016.0
20260902150056 90 255 0.0 0.0 0.00 0.00 0.00 67 1016.0
20260902144602 89 27 0.0 0.0 0.00 0.00 0.00 69 1016.0
20260902143047 88 40 0.0 0.0 0.00 0.00 0.00 73 1016.0
20260902141643 86 40 0.0 0.0 0.00 0.00 0.00 77 1016.0
20260902140053 83 108 0.0 0.0 0.00 0.00 0.00 82 1016.0
20260902134550 81 110 0.0 0.0 0.00 0.00 0.00 84 1016.2
20260902133045 79 110 0.0 0.0 0.00 0.00 0.00 85 1016.3
20260902131513 78 110 0.0 0.0 0.00 0.00 0.00 86 1016.3
20260902130024 75 103 0.0 0.0 0.00 0.00 0.00 90 1016.3
20260902124505 73 103 0.0 0.0 0.00 0.00 0.00 93 1016.3
20260902123100 70 103 0.0 0.0 0.00 0.00 0.00 93 1016.3
20260902121506 70 103 0.0 0.0 0.00 0.00 0.00 92 1016.2
20260902120004 70 103 0.0 0.0 0.00 0.00 0.00 91 1016.0
20260902114619 70 103 0.0 0.0 0.00 0.00 0.00 91 1015.7
20260902113058 69 111 0.0 0.0 0.00 0.00 0.00 92 1015.5
20260902111656 70 112 0.0 0.0 0.00 0.00 0.00 91 1015.6
20260902110105 70 112 0.0 0.0 0.00 0.00 0.00 91 1015.5
20260902104601 70 111 0.0 0.0 0.00 0.00 0.00 90 1015.4
20260902103103 70 111 0.0 0.0 0.00 0.00 0.00 91 1015.4
20260902101655 70 112 0.0 0.0 0.00 0.00 0.00 91 1015.4
20260902100054 70 92 0.0 0.0 0.00 0.00 0.00 91 1015.4
20260902094553 71 93 0.0 0.0 0.00 0.00 0.00 91 1015.3
20260902093051 70 95 0.0 0.0 0.00 0.00 0.00 91 1015.3
20260902091651 71 359 0.0 0.0 0.00 0.00 0.00 90 1015.2
20260902090052 71 359 0.0 0.0 0.00 0.00 0.00 92 1015.1
20260902084551 71 359 0.0 0.0 0.00 0.00 0.00 91 1014.9
20260902083049 71 359 0.0 0.0 0.00 0.00 0.00 91 1014.7
20260902081647 71 359 0.0 0.0 0.00 0.00 0.00 90 1014.7
20260902080053 72 359 0.0 0.0 0.00 0.00 0.00 90 1014.6
20260902074553 71 359 0.0 0.0 0.00 0.00 0.00 91 1014.6
20260902073051 72 359 0.0 0.0 0.00 0.00 0.00 90 1014.5
20260902071645 72 359 0.0 0.0 0.00 0.00 0.00 90 1014.6
20260902070044 72 359 0.0 0.0 0.00 0.00 0.00 90 1014.5
20260902064546 72 359 0.0 0.0 0.00 0.00 0.00 91 1014.6
20260902063043 72 107 0.0 0.0 0.00 0.00 0.00 90 1014.7
20260902060042 73 55 0.0 0.0 0.00 0.00 0.00 90 1014.6
20260902054541 74 359 0.0 0.0 0.00 0.00 0.00 89 1014.7
20260902053040 74 359 0.0 0.0 0.00 0.00 0.00 90 1014.7
20260902051638 74 359 0.0 0.0 0.00 0.00 0.00 89 1014.6
20260902050058 74 359 0.0 0.0 0.00 0.00 0.00 89 1014.7
20260902044557 74 359 0.0 0.0 0.00 0.00 0.00 90 1014.7
20260902043057 74 30 0.0 0.0 0.00 0.00 0.00 90 1014.6
20260902041508 74 359 0.0 0.0 0.00 0.00 0.00 91 1014.6
20260902040006 74 359 0.0 0.0 0.00 0.00 0.00 90 1014.7
20260902034501 75 359 0.0 0.0 0.00 0.00 0.00 90 1014.6
20260902033059 75 359 0.0 0.0 0.00 0.00 0.00 90 1014.6
20260902031655 76 359 0.0 0.0 0.00 0.00 0.00 89 1014.6
20260902030055 77 59 0.0 0.0 0.00 0.00 0.00 89 1014.5
20260902024553 77 55 0.0 0.0 0.00 0.00 0.00 87 1014.6
20260902023052 77 55 0.0 0.0 0.00 0.00 0.00 88 1014.6
20260902021650 78 93 0.0 0.0 0.00 0.00 0.00 86 1014.7
20260902020100 78 95 0.0 0.0 0.00 0.00 0.00 88 1014.6
20260902014556 79 359 0.0 0.0 0.00 0.00 0.00 86 1014.5
20260902013052 79 122 0.0 0.0 0.00 0.00 0.00 86 1014.4
20260902011649 80 359 0.0 0.0 0.00 0.00 0.00 84 1014.2
20260902010050 81 359 0.0 0.0 0.00 0.00 0.00 82 1014.0
20260902004548 82 79 0.0 0.0 0.00 0.00 0.00 81 1013.9
20260902003053 83 55 0.0 0.0 0.00 0.00 0.00 80 1013.9
20260902001646 84 54 0.0 0.9 0.00 0.00 0.00 78 1013.9
20260902000056 86 122 0.0 0.0 0.00 0.00 0.00 75 1014.0
20260901234543 88 127 0.0 0.0 0.00 0.00 0.00 71 1013.9
20260901233042 91 127 0.0 0.0 0.00 0.00 0.00 67 1014.0
20260901231643 92 52 0.0 0.0 0.00 0.00 0.00 63 1014.0
20260901230042 93 108 0.0 0.0 0.00 0.00 0.00 61 1014.1
20260901224542 94 89 0.0 0.0 0.00 0.00 0.00 56 1014.0
20260901223041 96 23 0.0 0.0 0.00 0.00 0.00 49 1013.9
20260901221640 96 227 0.0 0.0 0.00 0.00 0.00 49 1014.0
20260901220127 95 68 0.0 0.0 0.00 0.00 0.00 49 1013.9
20260901214559 97 58 0.0 1.7 0.00 0.00 0.00 49 1013.9
20260901213116 96 276 0.0 3.5 0.00 0.00 0.00 46 1013.9